Wind_Speed
45 44 43 43 44 44 45 46 47 50 53 57 61 63 64 63 61 60 58 56 54 51 49 48 47 46 44 42 40 38 35 33 31 29 27 25 23 22 21 19 18 18 19
47 48 48 48 48 47 46 46 47 49 51 53 57 62 65 67 67 66 64 62 60 57 55 53 51 50 48 46 43 41 38 36 34 31 29 27 25 23 21 20 19 18 19
53 54 54 53 52 51 50 48 47 47 49 51 53 56 61 65 68 69 69 67 65 63 60 58 55 54 52 49 47 45 42 39 36 34 31 28 26 24 22 20 19 19 20
58 58 58 57 56 56 55 53 51 50 49 49 51 53 55 59 63 67 70 71 70 68 65 62 59 56 54 52 51 48 45 42 39 36 33 31 28 26 24 21 20 20 20
60 61 62 62 62 61 59 56 54 53 52 50 50 51 52 53 55 59 64 69 71 71 69 66 63 60 56 54 53 51 48 45 42 39 35 32 29 27 24 22 20 20 20
62 63 63 63 62 60 58 55 53 52 52 51 49 49 49 49 49 50 54 60 66 70 71 69 66 64 60 57 55 53 50 47 43 40 37 33 31 28 25 23 21 20 20
64 63 62 61 59 55 52 50 49 48 49 49 48 48 47 48 47 46 46 49 54 62 68 68 67 67 64 57 55 54 52 49 46 42 38 35 33 30 27 24 22 21 21
63 61 59 57 54 50 46 45 43 43 44 46 47 47 46 46 46 45 44 43 45 49 57 63 65 65 65 63 58 54 52 49 46 44 40 37 34 31 28 25 23 21 21
60 58 56 53 48 43 40 38 38 38 39 42 43 45 45 45 45 45 44 42 41 42 46 52 58 61 61 61 58 55 52 50 47 44 41 38 36 33 29 26 23 21 20
57 54 51 47 41 37 33 30 31 33 35 37 39 41 42 44 44 44 43 41 39 39 40 44 49 55 58 58 57 55 53 51 49 45 42 39 36 33 30 27 25 23 21
53 50 47 42 36 30 25 22 22 25 29 32 34 36 38 40 42 42 42 41 39 37 36 38 42 47 52 55 56 55 52 50 49 46 43 40 37 33 31 28 26 24 23
50 47 43 38 31 25 20 16 15 18 22 26 30 32 33 35 37 39 40 40 38 36 35 35 37 41 46 51 55 56 54 51 49 47 44 41 38 34 31 29 27 26 25
48 45 40 35 29 24 19 13 10 13 17 20 24 27 29 31 33 34 36 37 36 34 33 34 35 37 42 48 53 55 54 51 48 47 44 41 37 34 32 30 28 26 25
45 42 39 35 30 25 19 12 6 7 12 16 19 23 25 28 29 30 32 33 33 33 31 31 32 35 38 44 51 54 52 51 48 45 43 41 38 36 33 31 29 27 25
42 40 38 34 31 27 21 15 8 3 5 10 15 19 22 24 26 28 30 31 32 32 30 29 30 33 37 41 47 51 52 50 48 46 43 41 39 37 34 31 29 27 26
40 37 36 34 31 27 23 18 13 7 1 4 9 14 17 20 23 26 27 29 30 31 29 28 29 32 37 40 45 50 51 49 47 45 42 40 38 36 33 31 29 27 26
38 36 33 32 30 27 24 20 15 10 5 0 5 9 13 17 20 23 25 27 29 29 29 28 30 33 36 39 44 49 51 50 47 45 42 40 37 36 34 31 29 28 26
38 35 33 30 29 27 24 21 17 12 8 3 2 6 10 14 18 21 23 25 26 27 28 29 31 34 36 39 45 50 50 48 46 44 41 39 37 34 33 31 30 29 28
36 34 33 30 28 26 23 21 18 14 10 6 1 3 7 11 15 18 20 22 24 25 27 30 31 33 37 40 47 51 49 47 45 41 39 37 36 34 33 31 30 29 28
36 34 32 30 28 26 23 21 19 15 12 8 4 1 4 7 11 15 17 19 21 22 25 27 28 32 36 41 46 50 47 45 43 40 38 36 35 34 32 30 29 28 28
36 33 31 30 28 26 25 22 19 17 15 11 7 5 3 5 8 12 15 17 18 20 22 24 27 32 37 42 46 47 45 43 41 38 37 35 33 32 30 30 29 28 27
35 34 31 29 28 27 26 23 21 19 16 14 12 9 8 8 9 12 15 15 18 20 21 23 26 32 35 40 43 43 43 41 39 37 35 33 32 30 29 28 27 26 25
33 32 31 29 27 27 26 24 23 21 18 16 15 14 13 13 14 16 18 19 20 20 21 22 26 31 35 38 39 39 39 38 36 34 32 31 30 28 27 26 25 24 24
31 31 30 29 28 26 25 24 24 23 21 20 19 18 18 18 18 19 21 22 23 24 25 26 28 31 33 35 37 36 35 35 33 31 30 29 27 26 25 24 24 23 24
28 28 28 27 27 26 26 24 23 23 22 21 21 22 22 22 22 23 24 25 25 26 27 28 29 30 31 33 33 32 31 30 29 28 26 25 24 23 23 22 22 22 22
25 25 26 26 25 25 25 25 23 23 24 24 23 24 24 24 24 24 24 25 26 27 27 28 28 28 29 28 28 27 26 25 24 23 22 22 21 21 21 20 20 21 21
Wind_Direction
303 300 297 293 290 285 280 273 267 261 257 252 248 246 244 242 241 240 238 237 237 238 239 240 239 240 239 239 239 240 242 246 251 258 264 270 274 277 279 280 279 269 260
306 303 300 297 293 288 283 278 271 265 259 255 251 248 245 243 241 239 237 236 236 236 237 239 239 239 239 239 238 239 240 243 247 253 259 264 268 273 277 279 277 269 260
306 303 300 297 293 289 284 279 274 268 262 257 254 250 247 244 242 240 238 236 235 235 236 237 238 238 238 238 238 238 239 241 244 248 253 258 263 267 272 276 275 268 260
307 304 300 296 292 288 284 279 273 267 262 258 254 251 249 247 244 242 239 237 235 234 234 235 236 236 237 237 238 238 237 238 240 244 248 254 257 262 266 270 270 266 260
308 305 302 298 293 289 284 278 272 266 261 256 253 251 249 247 246 244 242 239 237 235 233 233 233 234 234 235 235 236 236 236 237 240 244 249 253 256 261 263 265 264 260
310 307 303 300 296 291 284 277 270 264 259 254 250 248 246 245 245 244 243 242 239 237 236 234 233 232 232 233 233 234 234 234 235 236 239 243 248 252 255 258 260 260 257
313 310 307 303 299 292 284 276 269 263 256 250 245 243 241 241 241 242 242 242 241 239 238 236 234 233 232 231 231 232 231 231 232 233 236 239 243 248 251 253 255 256 254
318 314 311 307 302 294 286 277 268 259 252 246 242 239 238 237 237 238 239 240 240 240 239 237 235 234 234 233 231 230 230 229 229 230 232 235 239 243 246 248 250 253 251
322 319 316 313 306 298 288 277 266 256 248 243 239 237 235 234 235 235 236 236 237 238 238 237 235 234 232 231 230 229 228 227 227 227 229 231 235 239 241 243 247 248 247
329 326 324 321 314 306 294 279 265 252 244 239 236 234 233 232 232 232 233 233 234 236 237 235 233 232 231 229 227 226 225 224 225 225 225 227 230 233 236 238 241 243 244
337 335 333 330 325 316 304 286 267 249 239 236 231 230 230 230 229 229 229 229 230 233 234 233 230 228 228 226 224 222 221 220 221 221 222 224 226 228 230 234 236 238 240
344 343 342 340 338 332 319 298 270 247 237 233 228 225 226 226 226 226 226 227 227 230 230 230 228 225 222 220 218 218 218 218 218 218 219 221 223 225 227 230 231 233 236
350 351 352 352 351 347 340 321 280 246 235 230 224 221 221 222 222 222 223 223 224 226 227 227 226 223 219 215 213 213 215 215 215 215 216 219 220 221 224 226 227 229 231
355 358 0 0 0 360 358 350 319 259 233 224 218 217 218 218 218 218 218 218 219 219 220 222 222 218 214 210 208 208 208 211 211 211 213 216 217 218 220 222 224 227 230
359 2 5 6 7 8 10 10 4 328 226 215 212 214 215 216 216 215 215 215 214 215 218 221 219 214 208 205 203 204 203 205 207 208 210 213 214 215 217 218 220 224 226
2 4 6 9 11 14 16 18 20 25 57 199 206 209 212 213 212 212 213 212 213 214 217 219 216 210 203 200 200 200 200 201 203 204 207 210 211 213 214 216 219 221 223
4 6 7 10 13 15 18 21 23 26 29 122 200 204 207 209 210 211 211 211 211 214 217 216 210 202 198 196 195 194 194 196 199 201 204 206 208 210 212 214 217 219 222
6 7 9 10 13 16 20 22 23 23 21 20 210 210 211 210 209 209 209 210 211 213 215 211 206 201 196 193 191 188 189 191 194 197 202 204 206 208 210 212 214 217 221
7 8 9 11 13 15 18 19 20 22 22 21 2 215 212 210 208 208 209 209 210 211 210 208 204 200 195 193 189 186 185 186 189 193 198 201 204 206 208 210 212 215 220
9 10 11 13 14 15 17 19 22 24 24 21 14 282 216 205 200 201 202 203 204 204 205 204 199 196 195 190 188 184 182 183 186 191 196 200 203 205 207 209 212 216 219
11 13 15 17 18 19 22 24 26 27 28 29 35 52 97 151 172 181 186 191 192 193 192 189 188 190 188 187 184 180 181 183 185 190 196 198 201 203 207 210 212 215 219
13 14 16 19 22 24 26 29 31 32 36 44 55 71 87 110 130 149 158 165 168 170 173 174 178 181 184 183 179 177 178 181 185 189 193 195 197 201 206 209 212 215 218
14 16 19 21 23 25 29 32 34 39 48 57 65 75 91 103 112 124 132 138 144 147 150 159 167 170 171 172 172 173 177 182 185 188 192 193 196 201 205 208 211 213 216
16 19 22 25 28 31 34 38 41 47 54 61 70 79 87 96 105 115 123 127 131 136 142 147 154 162 166 168 171 174 178 181 184 188 191 193 196 201 205 208 212 215 217
18 22 25 29 33 37 39 42 47 54 62 68 75 81 86 95 103 110 118 123 127 133 139 143 148 156 162 167 170 174 177 179 182 186 189 194 199 203 207 211 214 216 220
18 24 28 33 37 41 45 48 54 62 68 74 80 85 89 95 103 108 114 121 126 132 138 143 149 155 160 162 165 169 173 177 181 186 191 197 201 206 210 213 216 219 223
Height
5695 5690 5686 5683 5679 5676 5675 5674 5673 5674 5674 5676 5679 5682 5687 5691 5697 5702 5707 5712 5716 5721 5726 5731 5736 5740 5746 5750 5755 5760 5764 5767 5770 5772 5774 5775 5775 5775 5775 5774 5774 5774 5775
5679 5675 5670 5666 5662 5659 5656 5654 5653 5653 5654 5655 5657 5660 5665 5670 5675 5681 5688 5694 5700 5705 5711 5716 5722 5727 5733 5738 5744 5749 5754 5758 5762 5765 5767 5768 5769 5769 5769 5769 5769 5769 5770
5663 5657 5652 5647 5643 5639 5636 5635 5633 5633 5633 5635 5636 5639 5643 5648 5653 5660 5667 5674 5681 5688 5695 5701 5707 5713 5719 5725 5731 5737 5743 5748 5752 5756 5759 5761 5762 5763 5763 5763 5763 5763 5764
5645 5638 5632 5627 5622 5618 5615 5612 5612 5612 5613 5614 5616 5619 5622 5626 5632 5638 5645 5653 5661 5669 5677 5684 5691 5698 5705 5711 5718 5724 5731 5737 5742 5746 5750 5753 5755 5756 5757 5757 5758 5758 5759
5627 5618 5611 5604 5599 5594 5590 5588 5587 5588 5590 5593 5596 5600 5603 5608 5612 5617 5624 5632 5641 5649 5657 5666 5674 5682 5689 5696 5703 5710 5718 5725 5731 5736 5741 5744 5748 5749 5750 5751 5752 5752 5753
5608 5598 5588 5580 5573 5567 5563 5562 5562 5564 5567 5570 5575 5580 5585 5590 5595 5600 5605 5612 5621 5629 5638 5647 5656 5664 5672 5680 5688 5696 5704 5712 5719 5726 5731 5736 5739 5742 5743 5745 5746 5747 5748
5589 5577 5566 5556 5548 5541 5538 5537 5538 5540 5544 5549 5555 5560 5566 5573 5579 5584 5590 5596 5603 5611 5620 5629 5638 5647 5655 5664 5673 5681 5690 5699 5708 5715 5721 5726 5731 5734 5736 5738 5739 5741 5742
5570 5557 5545 5534 5525 5519 5515 5514 5516 5519 5523 5529 5535 5543 5549 5556 5563 5569 5575 5581 5588 5594 5602 5611 5621 5630 5639 5648 5658 5667 5678 5687 5696 5704 5711 5716 5721 5725 5728 5730 5732 5734 5736
5555 5541 5528 5516 5506 5500 5496 5495 5496 5500 5505 5512 5519 5526 5534 5541 5548 5555 5561 5568 5575 5581 5587 5595 5604 5614 5624 5634 5645 5655 5665 5675 5684 5692 5700 5706 5712 5717 5720 5723 5726 5728 5730
5542 5527 5514 5501 5491 5484 5480 5479 5481 5484 5490 5497 5505 5512 5520 5527 5534 5542 5549 5556 5563 5569 5575 5581 5589 5599 5608 5619 5631 5643 5654 5664 5673 5682 5690 5696 5702 5708 5712 5716 5719 5722 5724
5533 5518 5504 5492 5482 5475 5471 5469 5470 5473 5479 5485 5493 5501 5508 5516 5523 5530 5537 5545 5551 5557 5563 5569 5575 5584 5594 5606 5619 5631 5642 5652 5662 5671 5680 5687 5694 5699 5704 5709 5712 5716 5719
5527 5513 5499 5487 5478 5471 5466 5464 5464 5467 5472 5477 5484 5491 5498 5505 5512 5519 5527 5534 5541 5548 5553 5559 5564 5572 5581 5592 5606 5619 5630 5641 5652 5662 5670 5678 5686 5692 5697 5701 5705 5709 5712
5525 5511 5498 5487 5478 5471 5465 5462 5462 5464 5467 5472 5477 5484 5491 5498 5504 5511 5518 5525 5532 5538 5544 5549 5555 5562 5570 5580 5593 5607 5619 5631 5642 5653 5662 5670 5678 5684 5689 5694 5698 5702 5705
5525 5512 5500 5490 5481 5473 5467 5464 5462 5463 5465 5469 5474 5480 5486 5492 5498 5504 5510 5517 5524 5530 5536 5542 5547 5554 5562 5571 5583 5596 5609 5622 5634 5644 5654 5662 5669 5676 5682 5687 5691 5695 5699
5526 5515 5504 5494 5485 5477 5471 5467 5465 5464 5465 5468 5472 5477 5482 5487 5493 5498 5504 5511 5517 5523 5529 5535 5541 5547 5554 5563 5575 5587 5600 5613 5625 5636 5645 5654 5662 5668 5674 5680 5684 5689 5693
5528 5518 5508 5499 5491 5483 5477 5473 5470 5468 5468 5470 5472 5475 5479 5484 5489 5494 5499 5505 5511 5518 5524 5529 5535 5541 5549 5557 5568 5580 5593 5606 5617 5628 5638 5647 5654 5662 5668 5673 5678 5682 5686
5531 5521 5512 5504 5496 5489 5483 5478 5475 5473 5472 5472 5473 5475 5478 5481 5486 5490 5495 5501 5506 5512 5518 5523 5529 5536 5543 5552 5562 5574 5587 5599 5611 5622 5632 5640 5648 5655 5661 5667 5672 5676 5680
5534 5525 5516 5508 5501 5494 5488 5484 5480 5477 5475 5474 5475 5476 5478 5480 5483 5487 5492 5497 5502 5507 5513 5518 5524 5531 5539 5547 5557 5569 5580 5593 5605 5616 5626 5634 5642 5649 5655 5661 5666 5670 5674
5538 5528 5520 5512 5505 5499 5493 5488 5484 5481 5478 5477 5476 5476 5477 5479 5481 5485 5489 5493 5498 5503 5509 5514 5520 5527 5535 5543 5554 5564 5577 5589 5601 5611 5621 5629 5637 5643 5649 5655 5660 5664 5669
5541 5532 5524 5516 5509 5503 5497 5492 5488 5484 5481 5479 5477 5477 5477 5478 5480 5483 5487 5491 5496 5501 5506 5512 5518 5525 5533 5541 5551 5563 5575 5587 5598 5608 5617 5625 5632 5638 5644 5649 5654 5659 5663
5545 5536 5528 5521 5514 5508 5502 5496 5492 5488 5484 5481 5479 5478 5477 5478 5479 5482 5485 5490 5495 5499 5505 5511 5518 5524 5532 5542 5552 5563 5575 5586 5597 5606 5614 5622 5628 5634 5640 5645 5649 5654 5658
5550 5541 5533 5526 5519 5513 5507 5501 5496 5492 5488 5485 5482 5481 5480 5481 5481 5483 5486 5490 5495 5501 5506 5513 5520 5527 5535 5544 5555 5566 5577 5587 5596 5605 5612 5619 5625 5631 5636 5641 5646 5650 5654
5555 5547 5539 5532 5525 5519 5513 5507 5502 5498 5494 5491 5489 5487 5486 5486 5487 5489 5491 5495 5500 5505 5511 5517 5524 5532 5541 5550 5560 5570 5579 5588 5597 5604 5611 5617 5623 5629 5633 5638 5642 5646 5650
5560 5552 5545 5538 5532 5526 5520 5515 5510 5505 5501 5499 5497 5495 5494 5494 5495 5497 5500 5504 5508 5513 5519 5525 5532 5540 5548 5556 5565 5574 5582 5589 5597 5604 5610 5616 5621 5626 5631 5635 5639 5643 5646
5565 5558 5552 5545 5540 5534 5528 5523 5518 5514 5510 5508 5506 5505 5504 5504 5505 5507 5510 5514 5518 5523 5528 5534 5541 5548 5555 5563 5571 5578 5585 5592 5598 5604 5609 5614 5620 5624 5628 5632 5636 5640 5643
5569 5564 5558 5553 5547 5542 5537 5532 5527 5523 5520 5518 5516 5516 5515 5515 5516 5518 5521 5525 5529 5533 5538 5543 5549 5556 5562 5569 5575 5582 5588 5594 5599 5604 5609 5614 5618 5622 5626 5630 5633 5636 5639